This is the latest recevied weather packets stored in our database for station/object DH1FR-13. If no packets are shown the sender has not sent any weather packets the latest 10 day(s).
| Time | Temp. | Humidity | Pressure | Rain* | Wind** | Luminosity | Snow |
|---|---|---|---|---|---|---|---|
| 1787469600 | 13.33° C | 89% | 1027.1 hPa | 0.25 mm | 0 m/s | - | - |
| 1787469000 | 11.67° C | 91% | 1027.3 hPa | 0.25 mm | 0 m/s | - | - |
| 1787468401 | 12.22° C | 92% | 1027.2 hPa | 0.25 mm | 0 m/s | - | - |
| 1787467800 | 11.11° C | 94% | 1027.2 hPa | 0.25 mm | 0 m/s | - | - |
| 1787467200 | 10° C | 98% | 1027.4 hPa | 0.25 mm | 0 m/s | - | - |
| 1787466601 | 10° C | 99% | 1026.9 hPa | 0.25 mm | 0 m/s | - | - |
| 1787466001 | 10° C | 99% | 1027 hPa | 0.25 mm | 0 m/s | - | - |
| 1787465400 | 9.44° C | 99% | 1027.1 hPa | 0.25 mm | 0 m/s | - | - |
| 1787464800 | 8.89° C | 99% | 1026.9 hPa | 0.25 mm | 0 m/s | - | - |
| 1787464200 | 7.78° C | 99% | 1026.8 hPa | 0.25 mm | 0 m/s | - | - |
| 1787463600 | 7.22° C | 99% | 1026.5 hPa | 0.25 mm | 0 m/s | - | - |
| 1787463000 | 7.22° C | 99% | 1026.8 hPa | 0 mm | 0 m/s | - | - |
| 1787462400 | 7.22° C | 99% | 1026.5 hPa | 0 mm | 0 m/s | - | - |
| 1787461800 | 6.11° C | 99% | 1026.4 hPa | 0 mm | 0 m/s | - | - |
| 1787461200 | 6.11° C | 99% | 1026.4 hPa | 0 mm | 0 m/s | - | - |
| 1787460601 | 0° C | 100% | - | - | 0 m/s | - | - |
| 1787460001 | 6.11° C | 99% | 1026.3 hPa | 0 mm | 0 m/s | - | - |
| 1787459401 | 6.67° C | 99% | 1026.2 hPa | 0 mm | 0 m/s | - | - |
| 1787458800 | 6.11° C | 99% | 1026.2 hPa | 0 mm | 0 m/s | - | - |
| 1787458201 | 6.67° C | 99% | 1025.8 hPa | 0 mm | 0 m/s | - | - |
| 1787457601 | 6.11° C | 99% | 1025.9 hPa | 0 mm | 0 m/s | - | - |
| 1787457001 | 6.67° C | 99% | 1025.9 hPa | 0 mm | 0 m/s | - | - |
| 1787456400 | 6.67° C | 99% | 1026 hPa | 0 mm | 0 m/s | - | - |
| 1787455801 | 6.67° C | 99% | 1026 hPa | 0 mm | 0 m/s | - | - |
| 1787455201 | 6.67° C | 99% | 1026 hPa | 0 mm | 0 m/s | - | - |
* Rain latest hour (hover to see other rain measurements)
** Current wind speed in m/s (hover to see current wind gust speed)